#timestamp,LO_Frequency,Hit,StdDev 
1635202815.4,286047000.7,N
1635202835.2,286047000.9,N
1635202855.1,286047000.5,N
1635202856.0,286047000.5,N
1635202875.8,286047000.1,N
1635202895.6,286047000.0,N
1635202915.5,286046999.9,N
1635202935.3,286047002.6,Y
1635202955.2,286047004.2,P
1635202975.9,286047001.3,N
1635202995.7,286047004.2,N
1635203015.6,286047004.3,N
1635203035.4,286047004.3,N
1635203055.2,286047001.8,N
1635203075.1,286047003.6,N
1635203076.0,286047003.6,N
1635203095.8,286047005.6,Y
1635203115.7,286046999.8,P
1635203135.5,286047000.5,N
1635203155.3,286047000.1,N
1635203175.2,286047000.1,N
1635203195.0,286047000.3,N
1635203195.9,286047000.3,N
1635203215.8,286047000.8,N
1635203235.6,286046998.7,N
1635203255.4,286046998.2,N
1635203275.3,286046998.4,N
1635203295.1,286046998.1,N
1635203315.8,286046998.1,N
1635203335.7,286046999.2,N
1635203355.5,286046999.0,N
1635203375.4,286046998.9,N
1635203395.2,286046998.6,N
1635203415.0,286047000.6,N
1635203415.9,286047000.6,N
1635203435.8,286046998.3,N
1635203455.6,286046998.3,N
1635203475.4,286046998.8,N
1635203495.3,286046999.0,N
1635203515.1,286046998.7,N
1635203535.9,286046999.4,N
1635203555.7,286046996.5,Y
1635203575.5,286046998.8,P
1635203595.4,286046999.3,N
1635203615.2,286047001.2,P
1635203635.0,286046999.2,N
1635203636.0,286046999.2,N
1635203655.8,286046999.4,N
1635203675.6,286046999.3,N
1635203695.5,286046996.5,Y
1635203715.3,286047000.8,P
1635203735.2,286046998.2,N
1635203755.9,286046998.6,N
1635203775.7,286046998.3,N
1635203795.6,286046998.4,N
1635203815.4,286046998.6,N
1635203835.2,286047001.1,N
1635203855.1,286047000.6,N
1635203856.0,286047000.6,N
1635203875.8,286047000.9,N
1635203895.7,286047000.5,N
1635203915.5,286047002.8,N
1635203935.3,286047001.7,N
1635203955.2,286047002.3,N
1635203975.0,286046999.7,N
1635203975.9,286046999.7,N
1635203995.8,286047002.6,N
1635204015.6,286047002.7,N
1635204035.4,286047000.0,N
1635204055.3,286047000.1,N
1635204075.1,286047000.0,N
1635204095.8,286047000.9,N
1635204115.7,286047001.0,N
1635204135.5,286047000.3,N
1635204155.4,286047000.3,N
1635204175.2,286047000.3,N
1635204195.0,286047000.5,N
1635204195.9,286047000.5,N
1635204215.8,286046999.9,N
1635204235.6,286047000.2,N
1635204255.4,286047002.5,N
1635204275.3,286047002.7,N
1635204295.1,286046999.8,N
1635204315.9,286047000.4,N
1635204335.7,286047002.6,N
1635204355.5,286047002.6,N
1635204375.4,286047001.9,N
1635204395.2,286047001.7,N
1635204415.0,286047002.0,N
1635204416.0,286047002.0,N
1635204435.8,286047001.5,N
1635204455.6,286047002.2,N
1635204475.5,286047002.6,N
1635204495.3,286047000.1,N
1635204515.1,286047002.5,N
1635204535.9,286047002.5,N
1635204555.7,286047002.2,N
1635204575.6,286047000.1,N
1635204595.4,286046999.7,N
1635204615.2,286047000.8,N
1635204635.1,286047000.9,N
1635204636.0,286047000.9,N
1635204655.8,286047000.9,N
1635204675.6,286047000.3,N
1635204695.5,286047000.8,N
1635204715.3,286047001.1,N
1635204735.2,286047001.2,N
1635204755.9,286047000.8,N
1635204775.7,286047000.7,N
1635204795.6,286047000.3,N
1635204815.4,286047000.1,N
1635204835.2,286047000.3,N
1635204855.1,286047000.4,N
1635204856.0,286047000.4,N
1635204875.8,286047000.8,N
1635204895.7,286046998.2,N
1635204915.5,286047000.6,N
1635204935.3,286046999.9,N
1635204955.2,286046999.7,N
1635204975.0,286047000.4,N
1635204975.9,286047000.4,N
1635204995.8,286047002.4,N
1635205015.6,286047002.4,N
1635205035.5,286047002.4,N
1635205055.3,286047002.5,N
1635205075.1,286047002.6,N
1635205095.9,286047002.7,N
1635205115.7,286047002.8,N
1635205135.6,286047002.1,N
1635205155.4,286047001.5,N
1635205175.2,286047001.7,N
1635205195.1,286047003.9,Y
1635205196.0,286047003.9,P
1635205215.8,286047003.9,N
1635205235.7,286047001.7,N
1635205255.5,286047001.9,N
1635205275.3,286047002.7,N
1635205295.2,286047001.8,N
1635205315.9,286047001.3,N
1635205335.7,286047002.5,N
1635205355.6,286047001.9,N
1635205375.4,286047002.4,N
1635205395.2,286047001.0,N
1635205415.1,286046998.4,N
1635205416.0,286046998.4,N
1635205435.8,286047001.2,N
1635205455.7,286046998.5,N
1635205475.5,286046998.5,N
1635205495.3,286047001.0,N
1635205515.2,286046998.7,N
1635205535.0,286046998.7,N
1635205535.9,286046998.7,N
1635205555.8,286046999.4,N
1635205575.6,286046998.7,N
1635205595.4,286046998.4,N
1635205615.3,286047001.1,N
1635205635.1,286046998.5,N
1635205655.8,286046998.7,N
1635205675.7,286047001.2,N
1635205695.5,286046998.1,N
1635205715.4,286046999.1,N
1635205735.2,286046999.5,N
1635205755.0,286046999.5,N
1635205755.9,286046999.5,N
1635205775.8,286046998.9,N
1635205795.6,286046998.7,N
1635205815.5,286046998.8,N
1635205835.3,286047001.2,N
1635205855.1,286046998.7,N
1635205875.9,286046999.2,N
1635205895.7,286046999.5,N
1635205915.5,286046999.1,N
1635205935.4,286046997.7,N
1635205955.2,286046995.1,Y
1635205975.1,286046997.4,P
1635205976.0,286046997.4,N
1635205995.8,286046995.0,P
1635206015.6,286046997.4,N
1635206035.5,286046997.6,N
1635206055.3,286046995.0,Y
1635206075.1,286046998.1,P
1635206095.9,286046998.5,P
1635206115.8,286046999.3,N
1635206135.6,286046998.2,N
1635206155.5,286046998.7,N
1635206175.3,286046998.2,Y
1635206195.1,286047000.2,P
1635206215.9,286047002.3,N
1635206235.7,286047002.8,N
1635206255.6,286047000.5,N
1635206275.4,286047000.9,N
1635206295.2,286046998.1,N
1635206315.1,286047000.5,N
1635206316.0,286047000.5,N
1635206335.8,286047000.4,N
1635206355.6,286046998.5,N
1635206375.5,286047001.1,N
1635206395.3,286047000.0,N
